Location: Unspecified
(40.7945°N, 0.0000°E)
Time: 10:00:14
(UTC+00:00)

Courier 1B - Pass Details

Date: 29 January 2021
Orbit: 962 x 1209 km, 28.3° (Epoch: 03 March)

Event Time Altitude Azimuth Distance (km) Brightness Sun altitude
Rises 21:17:35 0° 232° (SW) 3,920 11.0 -45.9°
Enters shadow 21:19:46 - 225° (SW) 3,255 10.4 -46.3°
Reaches altitude 10° 21:20:57 10° 219° (SW) 2,918 - -46.5°
Maximum altitude 21:26:26 24° 169° (SSE) 2,004 - -47.5°
Drops below altitude 10° 21:31:40 10° 118° (ESE) 2,784 - -48.4°
Sets 21:34:48 0° 104° (ESE) 3,702 - -49.0°
